STARLINK-11162, 60123

Orbit data source: Space-Track

STARLINK-11162, 60123 is a payload satellite owned by SpaceX/Seattle (US) in LEO that was launched on Mon, 24 Jun 2024 UTC via an FALCON 9 launch vehicle from the Air Force Western Test Range (AFWTR). Payload-class satellites include a variety of spacecraft equipped with specific instruments for various scientific and technological missions. These include communications satellites like Starlink; space stations such as the ISS; scientific satellites like the Hubble; Earth observation satellites from companies like Planet Labs, Umbra, and HawkEye 360; GPS; miniature CubeSats for education and research; and military/defense satellites.

Loading next visibility...
Identifier
60123, 2024-118L
Orbit
LEO
Last TLE update
14 hours ago
Origin
Manufacturer
SpaceX/Seattle
Mission
Operational Commercial Communications
Bus & Motor
STARLINK V2M, Unknown motor
Mass
730 kg wet, ~700 kg dry
Launch date (UTC)
2024-06-24 (1 year ago)
Launch vehicle
FALCON 9
Launch site
Air Force Western Test Range (AFWTR)
Object type
Payload
Rocket body
Debris
Shape & HBR
Box + 2 Pan, 29 m
Radar Cross Section
33.884 m², Large (>1 m²)

Expand to show TLE details & history

TLE from 14 hours ago
0 STARLINK-11162
1 60123U 24118L   25181.85288360 -.00000014  00000-0  47388-5 0  9996
2 60123  53.1591  22.4201 0000768  85.4138 274.6968 15.69712736 58449
Epoch: 2025-06-30T20:28Z
TLE epoch observation values (Epoch: 2025-06-30T20:28:09.143Z)
Latitude
0.00003°
Longitude
156.22529°
Altitude
360.592 km
Speed
7.694 km/s
True Right ascension
01h 29m 40s
True Declination
0° 00' 00"
Sunlit
Object was in daylight at epoch
Visualization orbit readout
Latitude
-9.30639°
Longitude
146.39727°
Altitude
362.383 km
Speed
7.692 km/s
Apparent Right ascension
03h 59m 46s
Apparent Declination
-47° 22' 56"
Sunlit
Object is in daylight
Visualization observer readout
Local Sidereal Time
21:48:45
Azimuth
128.787° SE
Elevation
-29.812°
Doppler factor
1
Orbital elements
Apogee altitude
360.497 km
Perigee altitude
359.462 km
Semi-major axis
6,738.117 km
Eccentricity
0.00008
Inclination
53.1591°
RAAN
22.4201°
Arg. of periapsis
85.4138°
True anomaly
Unknown
Mean anomaly
274.6968°
Eccentric anomaly
Unknown
Mean motion
3.92406 °/min
Orbital period
91.74 mins
BSTAR
0.0000047388
Loading maneuver chart data...
Loading SW <> Apogee altitude chart data...
Loading historical data...
Loading historical data...
Loading historical data...
Loading historical data...
Loading historical data...
Loading historical data...
Loading historical data...

STARLINK-11162 Visibility forecast

Observer location: undefined°, undefined°

Span
Click to sort rows by Start time (UTC) header in descending order
Start Az.
Max El. time (UTC)
Max El. Az.
Max El.
End time (UTC)
End Az.
4 mins2025-07-01 16:33:21.125Z266.683° W2025-07-01 16:34:21.125Z308.611° NW34.727°2025-07-01 16:37:21.125Z38.808° NE
4 mins2025-07-01 22:57:21.125Z304.921° NW2025-07-01 22:59:21.125Z201.258° SSW43.882°2025-07-01 23:01:21.125Z137.779° SSE
|